Time,TemperatureF,DewpointF,PressureIn,WindDirection,WindDirectionDegrees,WindSpeedMPH,WindSpeedGustMPH,Humidity,HourlyPrecipIn,Conditions,Clouds,dailyrainin,SolarRadiationWatts/m^2,SoftwareType,DateUTC
2013-06-12 00:00:00,63.5,54.3,29.78,SE,134,0.0,0.0,72,0.00,,,0.00,0,Wunderground v.1.15,2013-06-12 07:00:00,
2013-06-12 00:06:00,63.4,54.6,29.78,SE,134,0.0,2.0,73,0.00,,,0.00,0,Wunderground v.1.15,2013-06-12 07:06:00,
2013-06-12 00:12:00,63.4,54.2,29.78,SE,134,0.0,0.0,72,0.00,,,0.00,0,Wunderground v.1.15,2013-06-12 07:12:00,
2013-06-12 00:18:00,63.2,54.0,29.78,SE,134,0.0,0.0,72,0.00,,,0.00,0,Wunderground v.1.15,2013-06-12 07:18:00,
2013-06-12 00:24:00,63.0,53.8,29.78,SE,134,0.0,0.0,72,0.00,,,0.00,0,Wunderground v.1.15,2013-06-12 07:24:00,
2013-06-12 00:30:00,62.8,54.0,29.78,SE,134,0.0,0.0,73,0.00,,,0.00,0,Wunderground v.1.15,2013-06-12 07:30:00,
2013-06-12 00:36:00,62.6,53.8,29.78,SE,134,0.0,0.0,73,0.00,,,0.00,0,Wunderground v.1.15,2013-06-12 07:36:00,
2013-06-12 00:42:00,62.4,53.6,29.78,SE,134,0.0,0.0,73,0.00,,,0.00,0,Wunderground v.1.15,2013-06-12 07:42:00,
2013-06-12 00:48:00,62.1,53.3,29.78,SE,134,0.0,0.0,73,0.00,,,0.00,0,Wunderground v.1.15,2013-06-12 07:48:00,
2013-06-12 00:54:00,61.9,53.1,29.78,SE,134,0.0,0.0,73,0.00,,,0.00,0,Wunderground v.1.15,2013-06-12 07:54:00,
2013-06-12 01:00:00,61.7,53.0,29.78,SE,134,0.0,0.0,73,0.00,,,0.00,0,Wunderground v.1.15,2013-06-12 08:00:00,
2013-06-12 01:06:00,61.6,53.2,29.78,SE,134,0.0,0.0,74,0.00,,,0.00,0,Wunderground v.1.15,2013-06-12 08:06:00,
2013-06-12 01:12:00,61.5,53.5,29.78,ESE,123,1.0,1.0,75,0.00,,,0.00,0,Wunderground v.1.15,2013-06-12 08:12:00,
2013-06-12 01:18:00,61.3,53.3,29.78,ESE,114,1.0,3.0,75,0.00,,,0.00,0,Wunderground v.1.15,2013-06-12 08:18:00,
2013-06-12 01:24:00,61.1,53.1,29.79,ESE,113,1.0,2.0,75,0.00,,,0.00,0,Wunderground v.1.15,2013-06-12 08:24:00,
2013-06-12 01:30:00,60.8,52.8,29.79,ESE,113,0.0,1.0,75,0.00,,,0.00,0,Wunderground v.1.15,2013-06-12 08:30:00,
2013-06-12 01:36:00,60.5,52.5,29.79,ESE,113,1.0,4.0,75,0.00,,,0.00,0,Wunderground v.1.15,2013-06-12 08:36:00,
2013-06-12 01:42:00,60.3,52.7,29.79,ESE,114,1.0,1.0,76,0.00,,,0.00,0,Wunderground v.1.15,2013-06-12 08:42:00,
2013-06-12 01:48:00,60.0,52.4,29.79,ESE,110,1.0,2.0,76,0.00,,,0.00,0,Wunderground v.1.15,2013-06-12 08:48:00,
2013-06-12 01:54:00,59.7,52.5,29.79,ESE,110,0.0,1.0,77,0.00,,,0.00,0,Wunderground v.1.15,2013-06-12 08:54:00,
2013-06-12 02:00:00,59.3,52.1,29.79,ESE,111,1.0,1.0,77,0.00,,,0.00,0,Wunderground v.1.15,2013-06-12 09:00:00,
2013-06-12 02:06:00,59.0,52.1,29.79,ESE,111,0.0,1.0,78,0.00,,,0.00,0,Wunderground v.1.15,2013-06-12 09:06:00,
2013-06-12 02:12:00,58.5,51.7,29.79,ESE,111,0.0,0.0,78,0.00,,,0.00,0,Wunderground v.1.15,2013-06-12 09:12:00,
2013-06-12 02:18:00,58.5,52.0,29.79,ESE,111,0.0,0.0,79,0.00,,,0.00,0,Wunderground v.1.15,2013-06-12 09:18:00,
2013-06-12 02:24:00,58.5,52.0,29.79,ESE,111,0.0,0.0,79,0.00,,,0.00,0,Wunderground v.1.15,2013-06-12 09:24:00,
2013-06-12 02:30:00,58.2,52.1,29.78,ESE,111,0.0,2.0,80,0.00,,,0.00,0,Wunderground v.1.15,2013-06-12 09:30:00,
2013-06-12 02:36:00,58.3,52.2,29.78,ESE,111,0.0,2.0,80,0.00,,,0.00,0,Wunderground v.1.15,2013-06-12 09:36:00,
2013-06-12 02:42:00,58.2,52.1,29.79,ESE,111,0.0,0.0,80,0.00,,,0.00,0,Wunderground v.1.15,2013-06-12 09:42:00,
2013-06-12 02:48:00,58.1,52.0,29.79,ESE,111,0.0,0.0,80,0.00,,,0.00,0,Wunderground v.1.15,2013-06-12 09:48:00,
2013-06-12 02:54:00,57.9,52.1,29.79,ESE,111,0.0,0.0,81,0.00,,,0.00,0,Wunderground v.1.15,2013-06-12 09:54:00,
2013-06-12 03:00:00,57.8,52.0,29.79,ESE,111,0.0,0.0,81,0.00,,,0.00,0,Wunderground v.1.15,2013-06-12 10:00:00,
2013-06-12 03:06:00,57.7,51.9,29.78,ESE,111,0.0,5.0,81,0.00,,,0.00,0,Wunderground v.1.15,2013-06-12 10:06:00,
2013-06-12 03:12:00,57.5,51.7,29.78,ESE,111,0.0,0.0,81,0.00,,,0.00,0,Wunderground v.1.15,2013-06-12 10:12:00,
2013-06-12 19:02:00,85.0,51.8,29.77,SW,215,2.0,2.0,32,0.00,,,0.00,232,Wunderground v.1.15,2013-06-13 02:02:00,
2013-06-12 19:08:00,84.7,51.6,29.77,SSW,207,2.0,5.0,32,0.00,,,0.00,209,Wunderground v.1.15,2013-06-13 02:08:00,
2013-06-12 19:14:00,84.5,51.4,29.77,SW,230,2.0,6.0,32,0.00,,,0.00,188,Wunderground v.1.15,2013-06-13 02:14:00,
2013-06-12 19:20:00,84.3,52.1,29.78,SW,228,2.0,5.0,33,0.00,,,0.00,163,Wunderground v.1.15,2013-06-13 02:20:00,
2013-06-12 19:26:00,84.2,52.0,29.77,SW,232,2.0,7.0,33,0.00,,,0.00,142,Wunderground v.1.15,2013-06-13 02:26:00,
2013-06-12 19:32:00,83.8,51.6,29.78,SW,216,3.0,3.0,33,0.00,,,0.00,120,Wunderground v.1.15,2013-06-13 02:32:00,
2013-06-12 19:38:00,83.5,49.7,29.78,SW,228,2.0,6.0,31,0.00,,,0.00,98,Wunderground v.1.15,2013-06-13 02:38:00,
2013-06-12 19:44:00,82.7,48.1,29.78,SW,231,5.0,6.0,30,0.00,,,0.00,77,Wunderground v.1.15,2013-06-13 02:44:00,
2013-06-12 19:50:00,82.0,47.5,29.78,WSW,238,5.0,5.0,30,0.00,,,0.00,60,Wunderground v.1.15,2013-06-13 02:50:00,
2013-06-12 19:56:00,81.5,47.9,29.78,SW,227,2.0,5.0,31,0.00,,,0.00,40,Wunderground v.1.15,2013-06-13 02:56:00,
2013-06-12 20:02:00,80.7,46.4,29.79,SW,220,1.0,12.0,30,0.00,,,0.00,23,Wunderground v.1.15,2013-06-13 03:02:00,
2013-06-12 20:08:00,79.7,45.5,29.79,SW,225,2.0,12.0,30,0.00,,,0.00,16,Wunderground v.1.15,2013-06-13 03:08:00,
2013-06-12 20:14:00,78.9,44.8,29.78,WSW,237,5.0,8.0,30,0.00,,,0.00,14,Wunderground v.1.15,2013-06-13 03:14:00,
2013-06-12 20:20:00,78.3,45.2,29.78,SW,232,6.0,6.0,31,0.00,,,0.00,11,Wunderground v.1.15,2013-06-13 03:20:00,
2013-06-12 20:26:00,77.3,45.9,29.78,WSW,238,5.0,6.0,33,0.00,,,0.00,9,Wunderground v.1.15,2013-06-13 03:26:00,
2013-06-12 20:32:00,76.3,46.6,29.79,SW,236,5.0,5.0,35,0.00,,,0.00,5,Wunderground v.1.15,2013-06-13 03:32:00,
2013-06-12 20:38:00,75.4,46.6,29.79,WSW,239,3.0,5.0,36,0.00,,,0.00,0,Wunderground v.1.15,2013-06-13 03:38:00,
2013-06-12 20:44:00,74.6,47.3,29.79,WSW,245,4.0,5.0,38,0.00,,,0.00,0,Wunderground v.1.15,2013-06-13 03:44:00,
2013-06-12 20:50:00,73.8,47.3,29.79,WSW,242,4.0,4.0,39,0.00,,,0.00,0,Wunderground v.1.15,2013-06-13 03:50:00,
2013-06-12 20:56:00,73.2,48.1,29.79,WSW,240,2.0,4.0,41,0.00,,,0.00,0,Wunderground v.1.15,2013-06-13 03:56:00,
2013-06-12 21:02:00,72.5,47.5,29.79,WSW,238,2.0,11.0,41,0.00,,,0.00,0,Wunderground v.1.15,2013-06-13 04:02:00,
2013-06-12 21:04:00,72.3,47.3,29.79,WSW,244,3.0,11.0,41,0.00,,,0.00,0,Wunderground v.1.15,2013-06-13 04:04:00,
2013-06-12 21:06:00,72.4,46.0,29.79,WSW,248,4.0,11.0,39,0.00,,,0.00,0,Wunderground v.1.15,2013-06-13 04:06:00,
2013-06-12 21:10:00,73.1,46.0,29.79,WSW,251,5.0,5.0,38,0.00,,,0.00,0,Wunderground v.1.15,2013-06-13 04:10:00,
2013-06-12 21:16:00,73.6,45.7,29.79,WSW,254,6.0,6.0,37,0.00,,,0.00,0,Wunderground v.1.15,2013-06-13 04:16:00,
2013-06-12 21:22:00,73.7,45.1,29.79,WSW,247,5.0,5.0,36,0.00,,,0.00,0,Wunderground v.1.15,2013-06-13 04:22:00,
2013-06-12 21:28:00,73.7,45.1,29.79,WSW,252,5.0,6.0,36,0.00,,,0.00,0,Wunderground v.1.15,2013-06-13 04:28:00,
2013-06-12 21:34:00,73.2,45.4,29.79,WSW,240,4.0,5.0,37,0.00,,,0.00,0,Wunderground v.1.15,2013-06-13 04:34:00,
2013-06-12 21:40:00,72.4,46.0,29.80,SW,226,3.0,3.0,39,0.00,,,0.00,0,Wunderground v.1.15,2013-06-13 04:40:00,
2013-06-12 21:46:00,71.8,46.2,29.80,SW,225,1.0,3.0,40,0.00,,,0.00,0,Wunderground v.1.15,2013-06-13 04:46:00,
2013-06-12 21:52:00,71.2,46.3,29.80,SW,225,0.0,0.0,41,0.00,,,0.00,0,Wunderground v.1.15,2013-06-13 04:52:00,
2013-06-12 21:58:00,70.7,45.8,29.80,SW,222,0.0,3.0,41,0.00,,,0.00,0,Wunderground v.1.15,2013-06-13 04:58:00,
2013-06-12 22:04:00,70.5,46.3,29.80,SW,223,1.0,11.0,42,0.00,,,0.00,0,Wunderground v.1.15,2013-06-13 05:04:00,
2013-06-12 22:10:00,69.9,47.0,29.81,SW,219,0.0,0.0,44,0.00,,,0.00,0,Wunderground v.1.15,2013-06-13 05:10:00,
2013-06-12 22:16:00,68.9,47.3,29.80,SW,219,0.0,0.0,46,0.00,,,0.00,0,Wunderground v.1.15,2013-06-13 05:16:00,
2013-06-12 22:22:00,67.9,47.5,29.80,SW,219,0.0,0.0,48,0.00,,,0.00,0,Wunderground v.1.15,2013-06-13 05:22:00,
2013-06-12 22:28:00,67.4,46.5,29.80,SW,223,1.0,3.0,47,0.00,,,0.00,0,Wunderground v.1.15,2013-06-13 05:28:00,
2013-06-12 22:34:00,67.2,47.4,29.81,South,172,1.0,1.0,49,0.00,,,0.00,0,Wunderground v.1.15,2013-06-13 05:34:00,
2013-06-12 22:40:00,66.5,46.7,29.82,East,88,0.0,0.0,49,0.00,,,0.00,0,Wunderground v.1.15,2013-06-13 05:40:00,
2013-06-12 22:46:00,66.2,47.5,29.81,East,90,1.0,2.0,51,0.00,,,0.00,0,Wunderground v.1.15,2013-06-13 05:46:00,
2013-06-12 22:52:00,66.1,47.4,29.81,SW,228,1.0,3.0,51,0.00,,,0.00,0,Wunderground v.1.15,2013-06-13 05:52:00,
2013-06-12 22:58:00,66.1,46.9,29.82,SSW,213,0.0,3.0,50,0.00,,,0.00,0,Wunderground v.1.15,2013-06-13 05:58:00,
2013-06-12 23:04:00,66.0,47.3,29.83,SSE,155,0.0,11.0,51,0.00,,,0.00,0,Wunderground v.1.15,2013-06-13 06:04:00,
2013-06-12 23:10:00,65.7,47.6,29.82,SE,130,0.0,0.0,52,0.00,,,0.00,0,Wunderground v.1.15,2013-06-13 06:10:00,
2013-06-12 23:16:00,65.5,47.4,29.83,SE,130,0.0,0.0,52,0.00,,,0.00,0,Wunderground v.1.15,2013-06-13 06:16:00,
2013-06-12 23:22:00,65.2,47.6,29.83,SE,130,0.0,0.0,53,0.00,,,0.00,0,Wunderground v.1.15,2013-06-13 06:22:00,
2013-06-12 23:28:00,64.9,47.9,29.83,SE,130,0.0,0.0,54,0.00,,,0.00,0,Wunderground v.1.15,2013-06-13 06:28:00,
2013-06-12 23:34:00,64.4,48.4,29.83,SE,130,0.0,0.0,56,0.00,,,0.00,0,Wunderground v.1.15,2013-06-13 06:34:00,
2013-06-12 23:40:00,63.8,48.3,29.83,ESE,111,0.0,0.0,57,0.00,,,0.00,0,Wunderground v.1.15,2013-06-13 06:40:00,
2013-06-12 23:46:00,63.1,48.1,29.83,ESE,105,0.0,0.0,58,0.00,,,0.00,0,Wunderground v.1.15,2013-06-13 06:46:00,
2013-06-12 23:52:00,62.3,47.3,29.83,ESE,108,0.0,0.0,58,0.00,,,0.00,0,Wunderground v.1.15,2013-06-13 06:52:00,
2013-06-12 23:58:00,61.7,47.2,29.83,ESE,108,0.0,0.0,59,0.00,,,0.00,0,Wunderground v.1.15,2013-06-13 06:58:00,